Content
SEND FEEDBACK

Daily
Averages
Monthly
Summary
Mexico

PUERTO MORELOS, QUINTANA ROO


Home > North America > Mexico > Quintana Roo
Elevation: 20 feet     Latitude: 20 51N     Longitude: 086 52W

WEATHER
 
SELECT A DAY
Number of Records: 163,746;   Date Range: 1/1/95 - 7/30/14
 
SHARE

PRINT THIS DATA

[ ← Previous Day ]
WEATHER ALMANAC - MARCH 26, 2013
[ Next Day → ]
[ °C ]   °F
Weather ElementAverageHighLow
Temperature72.2 °F75.2 °F (9:48 am)69.8 °F (1:48 am)
Dewpoint59.7 °F66.2 °F (1:48 am)57.2 °F (2:52 pm)
Humidity65 %88 % (1:48 am)53 % (2:52 pm)
Barometer30.12 in30.21 in (9:48 pm)30.00 in (2:46 am)
Wind Speed8.6 mph12.7 mph (12:41 pm)
Wind Gust23 mph (7:41 am)
Weather ElementAverage
Visibility5.7 mi
Wind DirectionSE (137.4 °)

Weather ElementTotal
Precipitation---
Cooling Degree Days7.5 (Base 65)
Growing Degree Days22.5 (Base 50)
Averaged from 23 records on March 26, 2013
WEATHER CONDITIONS BREAKOUT
WIND DIRECTION BREAKOUT
WEATHER BY HOUR - MARCH 26, 2013
[ °C ]   °F
Local TimeTemperatureDewpointHumidityBarometerVisibilityWind DirectionWind SpeedGust SpeedPrecipitationEventsConditions
1:48 AM69.8 °F66.2 °F88 %30.01 in5.0 miNorth (10°)6.9 mphOvercast
2:46 AM71.6 °F64.4 °F78 %30.00 in5.0 miNNE (20°)9.2 mphOvercast
3:56 AM71.6 °F62.6 °F73 %30.01 in6.0 miNNE (30°)5.8 mphOvercast
4:42 AM71.6 °F62.6 °F73 %30.03 in5.0 miNorth (10°)8.1 mphOvercast
5:47 AM71.6 °F62.6 °F73 %30.05 in5.0 miNorth (10°)11.5 mphOvercast
6:48 AM71.6 °F60.8 °F69 %30.09 in5.0 miNorth (10°)10.4 mphOvercast
7:41 AM71.6 °F60.8 °F69 %30.12 in5.0 miNorth (10°)9.2 mph23.0 mphOvercast
8:47 AM71.6 °F60.8 °F69 %30.15 in5.0 miNNE (30°)10.4 mphOvercast
9:48 AM75.2 °F60.8 °F61 %30.15 in6.0 miNNE (20°)9.2 mphOvercast
10:53 AM75.2 °F60.8 °F61 %30.16 in6.0 miNNE (20°)8.1 mphOvercast
11:45 AM75.2 °F60.8 °F61 %30.16 in6.0 miNNE (20°)11.5 mphMostly Cloudy
12:41 PM75.2 °F59.0 °F57 %30.13 in6.0 miNNE (20°)12.7 mphMostly Cloudy
1:41 PM75.2 °F59.0 °F57 %30.12 in6.0 miNNE (30°)10.4 mphMostly Cloudy
2:52 PM75.2 °F57.2 °F53 %30.11 in6.0 miNorth (360°)11.5 mphMostly Cloudy
3:44 PM73.4 °F57.2 °F57 %30.12 in6.0 miNorth (360°)9.2 mphMostly Cloudy
4:49 PM73.4 °F57.2 °F57 %30.13 in6.0 miNorth (360°)9.2 mphMostly Cloudy
5:51 PM71.6 °F57.2 °F60 %30.13 in6.0 miNorth (350°)9.2 mphOvercast
6:43 PM71.6 °F57.2 °F60 %30.17 in6.0 miNorth (10°)8.1 mphMostly Cloudy
7:46 PM69.8 °F57.2 °F64 %30.19 in6.0 miNorth (360°)5.8 mphMostly Cloudy
8:48 PM69.8 °F57.2 °F64 %30.18 in6.0 miNorth (360°)4.6 mphMostly Cloudy
9:48 PM69.8 °F57.2 °F64 %30.21 in6.0 miNorth (360°)5.8 mphMostly Cloudy
10:47 PM69.8 °F57.2 °F64 %30.21 in6.0 miNorth (360°)5.8 mphMostly Cloudy
11:46 PM69.8 °F57.2 °F64 %30.16 in6.0 miNE (40°)5.8 mphMostly Cloudy
Hourly data recorded from MMUN, located miles away from Puerto Morelos, Quintana Roo







STORIES FROM OUR PARTNERS